Regional Weather Roundup
Issued by NWS

Home | Current Version | Previous Version | Text Only | Print | Product List | Glossary Off
Versions: 1 2 3 4 5 6 7 8 9 10 11 12 13 14 15 16 17 18 19 20 21 22 23 24 25 26 27 28 29 30 31 32 33 34 35 36 37 38 39 40 41 42 43 44 45 46 47 48 49 50

000
ASUS43 KLOT 281408
RWRIL

ILLINOIS REGIONAL WEATHER ROUNDUP
NATIONAL WEATHER SERVICE CHICAGO/ROMEOVILLE IL
900 AM CDT SAT MAY 28 2016

NOTE: "FAIR" INDICATES FEW OR NO CLOUDS BELOW 12,000 FEET WITH NO
SIGNIFICANT WEATHER AND/OR OBSTRUCTIONS TO VISIBILITY.

* THESE STATIONS ARE NOT UNDER NWS QUALITY CONTROL. THEY ALSO MAY NOT
  REPORT WEATHER SUCH AS PRECIPITATION OR FOG.

ILZ001-002-007-009-015-016-024-281500-
NORTHWEST ILLINOIS

CITY           SKY/WX    TMP DP  RH WIND       PRES   REMARKS
MOLINE         CLOUDY    74  66  76 S13       29.83R
STERLING*      CLOUDY    72  68  87 S8        29.86R
SAVANNA*       CLOUDY    71  67  87 S15       29.83R
$$

ILZ003-004-008-010-011-017-018-281500-
NORTH CENTRAL ILLINOIS

CITY           SKY/WX    TMP DP  RH WIND       PRES   REMARKS
ROCKFORD       CLOUDY    72  66  81 S15G24    29.88R
FREEPORT*      CLOUDY    71  66  86 S17       29.85S
ROCHELLE*      CLOUDY    72  67  84 S21       29.88R
DE KALB*       CLOUDY    70  67  88 S17G24    29.90R
$$

ILZ005-006-012>014-019>023-281500-
NORTHEAST ILLINOIS

CITY           SKY/WX    TMP DP  RH WIND       PRES   REMARKS
CHICAGO-OHARE  CLOUDY    72  65  78 S17       29.89R
CHICAGO-MIDWAY CLOUDY    74  64  71 S16G26    29.90R
AURORA         CLOUDY    74  66  76 S18G28    29.90R
LANSING*       CLOUDY    73  65  74 S18G24    29.93S
JOLIET*        CLOUDY    75  67  78 S16       29.92R
WAUKEGAN       CLOUDY    72  66  81 S15       29.88R
DUPAGE AIRPORT CLOUDY    73  65  75 S16G24    29.89R
KANKAKEE*      CLOUDY    73  66  79 S14       29.94S
WHEELING       CLOUDY    72  65  78 S15G22    29.90R
MORRIS*        PTSUNNY   72  66  81 S15G22    29.90R
ROMEOVILLE*    CLOUDY    73  64  73 SW15      29.91R
NORTHERLY ISL    N/A     72  63  73 S17         N/A
NORTHERLY ISL    N/A     72  63  73 S17         N/A
$$

LMZ740>746-281500-
SOUTHERN LAKE MICHIGAN

STATION/POSITION SKY/WX   TEMP    WIND        PRES    VSBY  WAVE
                          AIR SEA DIR/SP/G                  HT/PER
                          (F)     (DEG/KT/KT) (MB)    (MI)  (FT/S)
SOUTHERN BUOY              55 50  160/ 14/ 16 1012.2R         2/ 3
WILMETTE HARBOR            66 54  220/ 12/ 16   N/A           2/ 3
HARRISON CRIB              71     200/ 23/ 25   N/A
BURNHAM HARBOR             72     190/ 17/ 20   N/A
CALUMET HARBOR             73     170/ 13/ 18 1012.1R
BURNS HARBOR               73     190/ 19/ 25 1013.2S
MICHIGAN CITY              72     170/ 16/ 19   N/A
MICHIGAN CITY 6N           67 58  210/ 10/ 14   N/A           2/ 2
ST. JOSEPH                 68 61  180/ 12/ 16   N/A           2/ 3
$$

ILZ025>027-034>036-040-047-049-050-058-095>099-281500-
WEST-CENTRAL ILLINOIS

CITY           SKY/WX    TMP DP  RH WIND       PRES   REMARKS
QUINCY         MOSUNNY   72  65  78 S9        29.87S
GALESBURG*     CLOUDY    71  66  84 S14G20    29.87R
MACOMB*        PTSUNNY   71  67  85 S16G22    29.90R
JACKSONVILLE*  CLOUDY    70  65  85 S12G18    29.92R
PITTSFIELD*    MOSUNNY   71  67  87 S10G17    29.91R
$$

ILZ028>032-037-038-041>044-048-051>054-059>061-281500-
CENTRAL ILLINOIS

CITY           SKY/WX    TMP DP  RH WIND       PRES   REMARKS
PONTIAC        CLOUDY    74  67  80 S18       29.93R
BLOOMINGTON    CLOUDY    71  68  90 S17       29.94R
DECATUR        CLOUDY    71  65  81 S16G23    29.96R
PEORIA         CLOUDY    71  65  81 S18       29.90R
LACON*         CLOUDY    72  64  77 S13G20    29.88S
LINCOLN*       CLOUDY    72  67  85 S8G18     29.93R
SPRINGFIELD    CLOUDY    71  65  81 S15       29.93R
TAYLORVILLE    CLOUDY    69  65  89 S14       29.95R
$$

ILZ033-039-045-046-055>057-062-063-281500-
EAST-CENTRAL ILLINOIS

CITY           SKY/WX    TMP DP  RH WIND       PRES   REMARKS
CHAMPAIGN      CLOUDY    71  66  84 S16       29.96R
RANTOUL*       CLOUDY    74  67  79 S18       29.96R
MATTOON        CLOUDY    71  64  78 S12G22    29.97R
PARIS*         CLOUDY    72  67  83 S9        29.99R
$$

ILZ079-100>102-281500-
SOUTHWEST ILLINOIS

CITY           SKY/WX    TMP DP  RH WIND       PRES   REMARKS
ALTON          CLOUDY    68  64  88 S13       29.94R
BELLEVILLE     CLOUDY    70  70  99 E7        29.94R
CAHOKIA*       CLOUDY    73  65  75 S12       29.93R
SPARTA*        MOSUNNY   69  66  92 S10       29.97R
$$

ILZ064>066-069>071-074>076-080>082-084>086-088>090-092>094-281500-
SOUTH-CENTRAL ILLINOIS

CITY           SKY/WX    TMP DP  RH WIND       PRES   REMARKS
CARBONDALE     LGT RAIN  69  65  86 S7        29.98R
CAIRO*         LGT RAIN  71  67  86 S6        30.00R
EFFINGHAM*     DRIZZLE   70  68  92 S10G16    30.00R
MARION         CLOUDY    72  66  83 S12       29.99R
MT. VERNON     CLOUDY    70  64  83 S7        30.00R
CENTRALIA*     LGT RAIN  70  68  94 S12       29.96F
SALEM*         LGT RAIN  71  66  85 S9        29.98R
METROPOLIS*    CLOUDY    75  69  81 CALM      30.01R
$$

ILZ067-068-072-073-078-083-087-091-281500-
SOUTHEAST ILLINOIS

CITY           SKY/WX    TMP DP  RH WIND       PRES   REMARKS
LAWRENCEVILLE  CLOUDY    75  67  76 S12       30.02R
FLORA*         LGT RAIN  73  67  83 S14       30.00R
FAIRFIELD*     DRIZZLE   72  66  83 S8        30.00R
HARRISBURG*    CLOUDY    73  67  83 SE5       30.00R
ROBINSON*      CLOUDY    73  67  82 S10       30.02R
CARMI*         CLOUDY    72  67  85 SE9       30.01R
$$

ABBREVIATIONS USED IN REMARKS
   TC - TEMPERATURE IN CELSIUS
  WCI - WIND CHILL INDEX
   HX - HEAT INDEX
  VSB - VISIBILITY
$$





USA.gov is the U.S. government's official web portal to all federal, state and local government web resources and services.